SCP
0 0 0 0 0 0 0 0 0 0 0 0 0 0 0 0 0 0 0 0 0 0 0 0 0 0 0 0 0 0 0 0 0 0 0 0 0 0 0 0 0 0 0
0 0 0 0 0 0 0 0 0 0 0 0 0 0 0 0 0 0 0 0 0 0 0 0 0 0 0 0 0 0 0 0 0 0 0 0 0 0 0 0 0 0 0
0 0 0 0 0 0 0 0 0 0 0 0 0 0 0 0 0 0 0 0 0 0 0 0 0 0 0 0 0 0 0 0 0 0 0 0 0 0 0 0 0 0 0
0 0 0 0 0 0 0 0 0 0 0 0 0 0 0 0 0 0 0 0 0 0 0 0 0 0 0 0 0 0 0 0 0 0 0 0 0 0 0 0 0 0 0
0 0 0 0 0 0 0 0 0 0 0 0 0 0 0 0 0 0 0 0 0 0 0 0 0 0 0 0 0 0 0 0 0 0 0 0 0 0 0 0 0 0 0
0 0 0 0 0 0 0 0 0 0 0 0 0 0 0 0 0 0 0 0 0 0 0 0 0 0 0 0 0 0 0 0 0 0 0 0 0 0 0 0 0 0 0
0 0 0 0 0 0 0 0 0 0 0 0 0 0 0 0 0 0 0 0 0 0 0 0 0 0 0 0 0 0 0 0 0 0 0 0 0 0 0 0 0 0 0
0 0 0 0 0 0 0 0 0 0 0 0 0 0 0 0 0 0 0 0 0 0 0 0 0 0 0 0 0 0 0 0 0 0 0 0 0 0 0 0 0 0 0
0 0 0 0 0 0 0 0 0 0 0 0 0 0 0 0 0 0 0 0 0 0 0 0 0 0 0 0 0 0 0 0 0 0 0 0 0 0 0 0 0 0 0
0 0 0 0 0 0 0 0 0 0 0 0 0 0 0 0 0 0 0 0 0 0 0 0 0 0 0 0 0 0 0 0 0 0 0 0 0 0 0 0 0 0 0
0 0 0 0 0 0 0 0 0 0 0 0 0 0 0 0 0 0 0 0 0 0 0 0 0 0 0 0 0 0 0 0 0 0 0 0 0 0 0 0 0 0 0
0 0 0 0 0 0 0 0 0 0 0 0 0 0 0 0 0 0 0 0 0 0 0 0 0 0 0 0 0 0 0 0 0 0 0 0 0 0 0 0 0 0 0
0 0 0 0 0 0 0 0 0 0 0 0 0 0 0 0 0 0 0 0 0 0 0 0 0 0 0 0 0 0 0 0 0 0 0 0 0 0 0 0 0 0 0
0 0 0 0 0 0 0 0 0 0 0 0 0 0 0 0 0 0 0 0 0 0 0 0 0 0 0 0 0 0 0 0 0 0 0 0 0 0 0 0 0 0 0
0 0 0 0 0 0 0 0 0 0 0 0 0 0 0 0 0 0 0 0 0 0 0 0 0 0 0 0 0 0 0 0 0 0 0 0 0 0 0 0 0 0 0
0 0 0 0 0 0 0 0 0 0 0 0 0 0 0 0 0 0 0 0 0 0 0 0 0 0 0 0 0 0 0 0 0 0 0 0 0 0 0 0 0 0 0
0 0 0 0 0 0 0 0 0 0 0 0 0 -0 -0 -0 -0 0 0 0 0 0 0 0 0 0 0 0 0 0 0 0 0 0 0 0 0 0 0 0 0 0 0
0 0 0 0 0 0 0 0 0 0 0 0 0 -0 -0 0 0 0 0 0 0 0 0 0 0 0 0 0 0 0 0 0 0 0 0 0 0 0 0 0 0 0 0
0 0 0 0 0 0 0 0 -0 -0 -0 -0 -0 -0 0 0 0 0 0 0 0 0 0 0 0 0 0 0 0 0 0 0 0 0 0 0 0 0 0 0 0 0 0
0 0 0 0 0 0 0 -0 -0 -0 -0 -0 -0 0 0 0 0 0 0 0 0 0 0 0 0 0 0 0 0 0 0 0 0 0 0 0 0 0 0 0 0 0 0
0 0 0 0 0 -0 -0 -0 -0 -0 0 0 0 0 0 0 0 0 0 0 0 0 0 0 0 0 0 0 0 0 0 0 0 0 0 0 0 0 0 0 0 0 0
0 0 0 0 -0 -0 -0 -0 -0 -0 0 0 0 0 0 0 0 0 0 0 0 0 0 0 0 0 0 0 0 0 0 0 0 0 0 0 0 0 0 0 0 0 0
0 0 0 0 -0 -0 -0 -0 -0 -0 0 0 0 0 0 0 0 0 0 0 0 0 0 0 0 0 0 0 0 0 0 0 0 0 0 0 0 0 0 0 0 0 0
0 0 -0 -0 -0 -0 -0 -0 -0 0 0 0 0 0 0 0 0 0 0 0 0 0 0 0 0 0 0 0 0 0 0 0 0 0 0 0 0 0 0 0 0 0 0
0 -0 -0 -0 -0 -0 -0 -0 0 0 0 0 0 0 0 0 0 0 0 0 0 0 0 0 0 0 0 0 0 0 0 0 0 0 0 0 0 0 0 0 0 0 0
0 -0 -0 -0 -0 -0 -0 -0 0 0 0 0 0 0 0 0 0 0 0 0 0 0 0 0 0 0 0 0 0 0 0 0 0 0 0 0 0 0 0 0 0 0 0
Wind_Speed
13 12 12 12 11 11 10 10 10 9 8 8 7 7 6 5 4 2 2 2 3 4 5 6 7 8 8 8 8 8 9 10 12 11 10 10 12 13 13 13 14 14 13
12 12 12 12 11 11 11 10 9 9 8 7 7 6 5 4 3 3 3 3 4 5 6 7 8 7 8 9 8 9 9 9 11 13 11 11 13 13 14 14 13 12 13
12 12 12 11 11 11 10 9 9 8 8 7 6 5 4 3 3 3 4 5 6 7 7 8 9 9 9 9 9 9 9 9 9 11 12 11 11 12 13 13 14 12 13
11 12 11 11 10 10 9 9 8 7 7 6 4 3 2 2 3 5 6 6 7 8 8 8 9 9 9 10 9 10 9 10 10 10 11 11 11 12 11 11 11 10 10
11 11 11 10 9 9 8 7 6 6 5 4 3 2 2 2 6 8 9 8 8 9 9 9 8 8 10 10 10 11 11 10 10 10 11 11 11 10 10 10 10 10 11
10 10 9 9 8 7 6 5 5 4 4 3 4 3 3 5 8 8 10 11 10 10 10 9 9 9 7 10 13 14 15 15 13 12 11 12 13 12 10 9 10 10 9
9 9 8 7 6 5 5 5 4 4 4 4 4 4 4 7 6 7 10 12 11 9 10 9 8 7 9 9 10 14 16 16 17 14 14 13 13 12 12 12 10 11 11
8 7 6 6 6 5 5 5 4 4 3 4 4 5 4 5 5 8 13 12 9 9 9 9 9 9 7 10 14 15 14 13 11 11 11 12 12 11 11 11 11 12 12
7 6 6 5 5 5 5 5 4 4 4 4 4 5 5 3 5 7 13 10 8 9 9 8 8 9 7 11 14 14 14 12 10 10 12 14 15 15 12 9 9 8 9
7 6 6 5 5 5 5 4 4 3 4 4 4 4 5 5 3 5 12 8 8 8 8 8 5 5 11 13 13 13 13 13 13 13 10 9 9 8 8 8 7 7 7
6 6 6 5 4 4 3 3 3 3 4 4 4 4 4 5 2 2 8 8 9 9 8 7 6 7 12 14 13 11 11 14 13 10 9 8 7 6 6 5 5 5 6
5 5 5 3 3 3 2 2 2 3 3 3 4 5 4 4 4 5 8 9 10 10 8 7 8 12 15 16 12 10 14 13 8 7 7 7 7 7 7 7 7 6 5
4 4 4 2 2 2 2 2 2 3 3 4 4 5 5 5 3 4 8 10 10 9 8 10 12 14 14 10 7 11 11 7 7 7 7 6 6 7 7 7 7 7 6
4 3 2 1 1 1 2 3 3 4 5 5 5 6 6 6 6 8 9 8 8 8 8 9 10 10 9 8 8 7 6 6 7 6 6 6 6 6 6 7 7 7 6
2 1 1 1 2 2 1 3 4 6 6 7 7 7 7 7 8 11 9 8 9 9 11 8 6 7 8 8 8 8 8 7 7 7 6 5 6 6 6 6 6 6 6
1 2 2 2 2 2 2 2 3 2 4 1 2 5 6 6 10 11 11 11 12 12 9 6 7 7 8 8 9 9 8 7 7 7 7 6 6 6 6 7 7 7 7
4 3 3 3 3 3 3 3 1 4 6 4 1 3 6 9 9 10 11 13 10 9 5 6 6 7 8 8 8 8 8 8 7 6 6 6 6 6 6 7 8 8 8
5 2 4 3 3 3 4 3 4 4 3 2 3 3 6 8 9 9 11 10 5 5 5 6 6 7 8 8 8 8 8 8 7 7 6 6 6 6 6 7 8 9 8
5 4 3 3 2 3 3 3 4 4 4 5 5 4 6 7 6 6 8 5 6 6 6 6 6 7 7 8 8 8 8 7 8 7 7 7 7 7 7 7 7 8 8
1 3 4 3 2 2 3 4 4 4 4 4 5 6 6 6 5 6 5 5 6 6 6 7 7 7 7 8 8 8 8 8 8 8 8 7 7 7 8 8 7 7 7
2 4 4 3 2 3 4 4 4 4 4 4 4 4 6 5 5 6 5 5 5 6 6 7 7 8 8 8 8 9 10 8 8 9 8 8 8 8 7 7 7 7 7
3 3 2 3 3 4 4 4 4 4 4 4 4 3 2 4 5 6 6 6 6 5 6 6 7 7 8 8 9 9 9 9 9 9 9 8 8 8 8 8 8 8 8
3 3 3 3 3 3 1 4 4 4 4 4 5 5 5 5 5 5 6 6 6 6 6 6 6 7 8 8 7 8 9 10 9 9 9 8 7 8 8 9 10 10 10
4 4 3 3 3 3 4 4 4 4 5 5 5 5 5 5 6 6 6 6 6 6 6 6 7 10 13 10 8 8 9 10 11 9 9 8 8 7 7 8 8 9 8
5 4 4 4 4 4 4 4 4 4 5 5 5 5 5 5 6 6 7 7 8 7 9 8 7 9 12 13 13 12 11 10 9 10 8 7 8 8 8 9 8 9 9
5 5 4 4 4 4 4 5 5 5 5 5 5 5 5 6 7 7 7 7 8 7 8 7 11 12 13 11 13 13 11 10 11 11 8 7 9 9 8 7 9 9 10
Wind_Direction
75 77 79 81 84 88 89 91 92 92 95 97 98 98 95 91 84 67 39 1 326 322 311 309 307 310 302 305 295 288 286 288 290 294 296 299 298 290 291 289 288 286 282
79 81 81 84 85 85 86 86 90 92 94 97 97 95 92 84 65 36 5 345 330 327 325 316 309 306 302 292 296 297 297 297 292 293 295 295 293 291 286 286 285 284 285
82 83 82 82 83 84 85 86 88 89 87 85 86 85 79 63 38 9 345 337 332 325 319 312 309 305 299 301 301 294 293 292 290 289 292 294 290 289 291 286 286 285 286
81 81 79 77 78 79 77 75 76 80 82 81 80 76 62 33 12 354 339 332 323 317 310 305 301 301 302 305 297 293 295 296 291 289 289 290 290 293 292 291 292 291 290
85 83 81 78 76 73 71 70 71 75 81 84 76 59 27 28 27 359 336 325 319 311 306 303 301 307 302 298 303 309 306 299 296 294 293 293 293 296 294 296 296 298 292
85 82 81 80 78 75 73 76 76 72 66 54 40 25 12 44 44 6 332 321 314 309 310 310 305 287 288 279 275 283 289 291 297 295 293 292 295 298 300 298 299 298 296
88 89 90 90 87 86 85 78 71 63 51 35 20 8 21 69 39 357 336 313 307 313 312 309 307 315 306 307 307 293 281 269 267 278 286 291 297 301 303 302 297 295 293
97 95 95 96 92 83 76 70 59 46 32 20 11 1 355 67 44 348 329 300 305 312 309 305 307 312 333 337 316 303 299 298 293 285 288 293 297 301 301 296 293 291 287
101 97 92 89 86 79 71 62 46 32 22 7 12 357 349 49 55 350 329 314 314 315 310 307 308 311 357 334 309 301 302 305 298 283 278 281 283 280 281 288 290 292 298
94 90 87 80 71 66 61 48 43 26 16 0 11 357 348 358 57 348 328 316 320 317 312 309 294 327 329 315 308 306 308 316 319 315 307 297 291 286 266 273 290 294 299
94 91 85 77 72 65 61 45 26 14 13 359 354 349 349 351 13 19 332 326 327 316 314 316 333 348 319 308 301 299 310 309 303 309 317 324 330 326 320 311 295 289 295
95 92 86 68 49 61 48 27 6 352 345 351 350 350 356 357 355 355 320 307 306 310 313 321 332 328 311 301 299 308 305 298 302 323 332 338 338 334 329 324 318 306 283
92 84 81 84 64 22 353 352 341 347 348 354 354 353 352 349 351 332 314 305 297 305 316 315 306 301 299 297 293 298 300 313 334 339 340 340 336 334 332 329 334 335 330
82 77 70 42 48 45 332 353 0 3 0 358 357 354 348 346 358 352 338 330 328 321 326 315 299 290 297 318 320 322 329 340 342 343 346 344 342 344 346 346 347 350 351
74 52 356 5 16 343 8 28 5 38 25 351 354 353 348 344 353 336 324 330 331 331 322 317 336 346 346 347 345 344 343 351 355 354 354 352 349 354 356 356 355 359 2
346 347 344 350 359 341 1 116 127 55 126 153 340 339 342 349 332 326 326 323 316 315 317 338 346 345 344 342 340 340 345 351 351 354 358 2 359 359 1 5 9 9 10
326 330 326 334 336 341 353 356 71 162 175 169 141 3 347 340 335 333 332 324 309 312 333 349 344 340 339 337 337 340 344 348 350 358 5 8 9 11 10 13 16 16 16
308 307 292 310 331 347 356 358 2 12 41 89 119 43 352 341 335 333 330 325 340 355 358 346 339 336 336 336 336 340 344 351 360 7 18 24 23 25 24 25 26 23 21
310 326 330 335 332 357 0 3 18 26 25 26 22 26 356 336 325 330 332 347 351 352 348 341 335 333 334 335 338 343 347 354 4 10 22 32 37 36 35 35 37 31 28
293 72 322 312 337 14 19 18 24 33 37 31 20 12 358 350 355 353 357 356 352 348 343 337 333 335 338 341 345 351 355 2 10 17 26 36 45 48 46 43 41 39 38
0 120 194 260 27 27 25 26 30 30 34 31 31 29 348 345 354 352 356 357 351 343 338 333 332 338 347 348 353 355 356 4 12 15 21 31 41 47 51 51 49 49 49
7 35 41 41 44 35 22 33 39 38 33 28 22 43 6 360 6 356 355 352 343 337 333 328 328 336 345 347 347 348 354 3 6 5 9 24 38 45 47 50 51 48 48
34 46 61 60 65 95 22 44 40 37 37 33 26 21 19 14 10 3 357 349 342 339 337 335 334 342 349 346 343 346 356 357 350 347 354 13 33 43 47 51 55 57 50
46 44 52 61 55 51 51 50 48 42 37 34 32 30 25 16 12 7 1 353 346 344 344 346 347 349 354 355 352 3 10 350 333 333 353 11 30 38 46 50 52 50 55
49 44 48 55 52 57 58 53 50 46 43 37 32 33 29 20 15 11 6 359 354 353 355 359 355 357 360 6 9 6 354 335 328 327 339 17 36 39 42 47 50 51 50
51 48 52 61 61 54 55 56 55 49 47 44 38 35 31 24 21 15 9 3 358 357 0 3 4 13 11 11 10 0 347 343 341 329 333 27 42 36 31 44 50 53 57